Regional Weather Roundup
Issued by NWS

Home | Current Version | Previous Version | Text Only | Print | Product List | Glossary Off
Versions: 1 2 3 4 5 6 7 8 9 10 11 12 13 14 15 16 17 18 19 20 21 22 23 24 25 26 27 28 29 30 31 32 33 34 35 36 37 38 39 40 41 42 43 44 45 46 47 48 49 50

141
ASUS45 KSLC 251710
RWRUT

UTAH REGIONAL WEATHER ROUNDUP
NATIONAL WEATHER SERVICE SALT LAKE CITY UT
1100 AM MDT MON JUL 25 2016

UTZ001>011-023>025-251800-

NORTHERN UTAH

CITY           SKY/WX    TMP DP  RH WIND       PRES   REMARKS
BRIGHAM CITY     N/A     82  31  16 CALM      30.10S
DUGWAY         MOSUNNY   86  31  13 W2        30.11F
HILL AFB       MOSUNNY   83  35  17 E10       30.13F
LOGAN          SUNNY     76  36  23 VRB3      30.13F
OGDEN          SUNNY     85  35  16 CALM      30.10F
PROVO AIRPORT  MOSUNNY   86  37  17 E6        30.12F
SALT LAKE CITY MOSUNNY   90  38  16 N6        30.07F
VERNAL         SUNNY     81  33  17 CALM      30.21S
WENDOVER       SUNNY     84  30  14 SE7       30.10S
HEBER CITY     SUNNY     77  36  22 CALM      30.20F

$$

UTZ012>022-026-027-251800-

SOUTHERN/CENTRAL UTAH

CITY           SKY/WX    TMP DP  RH WIND       PRES   REMARKS
BLANDING       MOSUNNY   81  47  29 S7        30.37R
BRYCE CANYON   SUNNY     81  40  23 W5        30.40S
CEDAR CITY     SUNNY     88  44  21 SW8       30.22S
DELTA          SUNNY     90  41  18 SW15G22   30.13S
MILFORD        SUNNY     89  47  23 S18       30.16S
MOAB/CYNLANDS  SUNNY     92  41  17 VRB5      30.12F
PRICE          SUNNY     85  25  11 VRB5      30.24S
ST GEORGE      SUNNY     93  50  22 CALM      30.04F HX  90

$$

REGIONAL REPORTS     COLORADO/ARIZONA

CITY           SKY/WX    TMP DP  RH WIND       PRES   REMARKS
CRAIG, CO      SUNNY     81  43  26 VRB3      30.28F
GRAND JUNCTION SUNNY     87  41  19 SE10G16   30.18S
RIFLE          SUNNY     80  45  28 NW5       30.24F
MONTROSE       SUNNY     84  46  26 VRB6      30.26F
CORTEZ         CLOUDY    84  49  29 VRB3      30.28F
PAGE, AZ       SUNNY     87  46  24 CALM      30.14F
GRAND CANYON   CLOUDY    78  50  37 SW8       30.36S
KINGMAN        MOSUNNY   91  54  28 W8G20     30.10S
FLAGSTAFF      SUNNY     79  50  36 VRB5      30.37S

$$

REGIONAL REPORTS    NEVADA/IDAHO/WYOMING

CITY           SKY/WX    TMP DP  RH WIND       PRES   REMARKS
LAS VEGAS, NV  MOSUNNY  100  35  10 VRB5      29.90F HX  94
ELY            SUNNY     86  24  10 VRB3      30.24F
ELKO           SUNNY     81  28  14 CALM      30.16F
POCATELLO, ID  SUNNY     76  47  35 NW8       30.14S
BURLEY         SUNNY     77  38  24 CALM      30.10F
EVANSTON, WY   SUNNY     79  25  13 VRB3      30.31F
ROCK SPRINGS   SUNNY     80  23  12 VRB3      30.30F
KEMMERER         N/A     77  25  14 E6        30.35R

$$




USA.gov is the U.S. government's official web portal to all federal, state and local government web resources and services.